Hourly Data Report for June 26, 2018

TORONTO CITY
ONTARIO
Current Station Operator: ECCC - MSC

43°40'00.000" N
79°24'00.000" W
112.50 m
6158355
71508
XTO

Download Data

Hourly Data (June 2018)
Hourly Data Report for June 26, 2018
TIME
LST
Temp Definition
°C
Dew Point Definition
°C
Rel Hum Definition
%
Precip. Amount Definition
mm

Wind Dir Definition
10's deg

Wind Spd Definition
km/h
Visibility Definition
km
Stn Press Definition
kPa
Hmdx Definition


Wind Chill Definition


Weather Definition


00:00 16.7 4.6 45 0.0 LegendMM LegendMM   101.01     LegendNANA
01:00 16.0 4.1 45 0.0 LegendMM LegendMM   101.00     LegendNANA
02:00 14.7 4.7 51 0.0 LegendMM LegendMM   101.03     LegendNANA
03:00 14.2 5.6 56 0.0 LegendMM LegendMM   101.07     LegendNANA
04:00 14.2 6.6 60 0.0 LegendMM LegendMM   101.04     LegendNANA
05:00 13.7 6.6 62 0.0 LegendMM LegendMM   101.04     LegendNANA
06:00 15.0 8.6 65 0.0 LegendMM LegendMM   101.03     LegendNANA
07:00 16.8 10.2 65 0.0 LegendMM LegendMM   101.05     LegendNANA
08:00 19.5 8.2 48 0.0 LegendMM LegendMM   101.08     LegendNANA
09:00 19.7 7.7 46 0.0 LegendMM LegendMM   101.00     LegendNANA
10:00 20.0 3.1 33 0.0 LegendMM LegendMM   100.98     LegendNANA
11:00 21.0 4.5 34 0.0 LegendMM LegendMM   100.91     LegendNANA
12:00 21.2 5.9 37 0.0 LegendMM LegendMM   100.85     LegendNANA
13:00 21.2 6.4 38 0.0 LegendMM LegendMM   100.76     LegendNANA
14:00 21.4 6.3 38 0.0 LegendMM LegendMM   100.72     LegendNANA
15:00 22.0 5.3 34 0.0 LegendMM LegendMM   100.67     LegendNANA
16:00 21.5 4.9 34 0.0 LegendMM LegendMM   100.60     LegendNANA
17:00 21.0 4.8 35 0.0 LegendMM LegendMM   100.53     LegendNANA
18:00 20.0 5.1 38 0.0 LegendMM LegendMM   100.47     LegendNANA
19:00 19.5 6.2 42 0.0 LegendMM LegendMM   100.39     LegendNANA
20:00 19.2 6.8 45 0.0 LegendMM LegendMM   100.29     LegendNANA
21:00 19.1 7.8 48 0.0 LegendMM LegendMM   100.28     LegendNANA
22:00 18.8 8.2 50 0.0 LegendMM LegendMM   100.23     LegendNANA
23:00 18.9 9.3 54 0.0 LegendMM LegendMM   100.18     LegendNANA

Notes on Data Quality.

Legend

  • E = Estimated
  • M = Missing
  • NA = Not Available*
  • [empty] = Indicates an unobserved value
Date modified: